Hourly Weather Rusaki

Today, 18 April, Sunday

Time Temperature Precipitation Wind Pressure Humidity
00:00 +8°C° 0 mm 1 mps 752 mmHg 83%
01:00 +8°C° 0 mm 1 mps 752 mmHg 83%
02:00 +7°C° 0 mm 1 mps 753 mmHg 85%
03:00 +7°C° 0 mm 1 mps 753 mmHg 86%
04:00 +7°C° 0 mm 1 mps 753 mmHg 87%
05:00 +7°C° 0 mm 1 mps 753 mmHg 87%
06:00 +7°C° 0.1 mm 1 mps 753 mmHg 85%
07:00 +8°C° 0.1 mm 1 mps 753 mmHg 83%
08:00 +9°C° 0.1 mm 1 mps 753 mmHg 81%
09:00 +10°C° 0 mm 1 mps 753 mmHg 78%
10:00 +11°C° 0 mm 1 mps 753 mmHg 75%
11:00 +12°C° 0 mm 1 mps 753 mmHg 72%
12:00 +13°C° 0.2 mm 2 mps 753 mmHg 69%
13:00 +14°C° 0.2 mm 2 mps 753 mmHg 66%
14:00 +16°C° 0.2 mm 2 mps 752 mmHg 64%
15:00 +16°C° 0.3 mm 2 mps 752 mmHg 65%
16:00 +15°C° 0.3 mm 2 mps 752 mmHg 67%
17:00 +15°C° 0.3 mm 1 mps 752 mmHg 69%
18:00 +14°C° 0.2 mm 2 mps 752 mmHg 73%
19:00 +13°C° 0.2 mm 2 mps 752 mmHg 77%
20:00 +12°C° 0.2 mm 2 mps 752 mmHg 81%
21:00 +10°C° 0 mm 2 mps 753 mmHg 83%
22:00 +9°C° 0 mm 3 mps 753 mmHg 85%
23:00 +8°C° 0 mm 3 mps 753 mmHg 87%

Tomorrow, 19 April, Monday

Time Temperature Precipitation Wind Pressure Humidity
00:00 +8°C° 0 mm 3 mps 753 mmHg 89%
01:00 +7°C° 0 mm 3 mps 753 mmHg 91%
02:00 +7°C° 0 mm 3 mps 753 mmHg 93%
03:00 +5°C° 0 mm 3 mps 753 mmHg 92%
04:00 +5°C° 0 mm 3 mps 753 mmHg 91%
05:00 +6°C° 0 mm 2 mps 753 mmHg 91%
06:00 +7°C° 0 mm 3 mps 753 mmHg 86%
07:00 +8°C° 0 mm 3 mps 753 mmHg 81%
08:00 +9°C° 0 mm 3 mps 754 mmHg 75%
09:00 +10°C° 0 mm 4 mps 753 mmHg 68%
10:00 +12°C° 0 mm 4 mps 753 mmHg 61%
11:00 +13°C° 0 mm 4 mps 753 mmHg 54%
12:00 +13°C° 0 mm 4 mps 753 mmHg 55%
13:00 +13°C° 0 mm 4 mps 753 mmHg 56%
14:00 +13°C° 0 mm 3 mps 753 mmHg 57%
15:00 +12°C° 0 mm 4 mps 753 mmHg 58%
16:00 +12°C° 0 mm 5 mps 753 mmHg 60%
17:00 +12°C° 0 mm 5 mps 752 mmHg 62%
18:00 +9°C° 0 mm 5 mps 753 mmHg 65%
19:00 +8°C° 0 mm 4 mps 753 mmHg 69%
20:00 +8°C° 0 mm 3 mps 753 mmHg 73%
21:00 +8°C° 0 mm 3 mps 753 mmHg 71%
22:00 +8°C° 0 mm 2 mps 752 mmHg 68%
23:00 +8°C° 0 mm 2 mps 752 mmHg 66%

Day after tomorrow, 20 April, Tuesday

Time Temperature Precipitation Wind Pressure Humidity
00:00 +8°C° 0 mm 2 mps 752 mmHg 68%
01:00 +7°C° 0 mm 2 mps 752 mmHg 70%
02:00 +7°C° 0 mm 2 mps 752 mmHg 72%
03:00 +7°C° 0 mm 2 mps 751 mmHg 75%
04:00 +6°C° 0 mm 2 mps 751 mmHg 78%
05:00 +6°C° 0 mm 2 mps 751 mmHg 81%
06:00 +7°C° 0 mm 2 mps 751 mmHg 80%
07:00 +7°C° 0 mm 3 mps 751 mmHg 79%
08:00 +8°C° 0 mm 3 mps 751 mmHg 78%
09:00 +9°C° 0.2 mm 3 mps 750 mmHg 72%
10:00 +10°C° 0.2 mm 3 mps 750 mmHg 65%
11:00 +11°C° 0.2 mm 3 mps 750 mmHg 59%
12:00 +11°C° 0.2 mm 3 mps 750 mmHg 58%
13:00 +12°C° 0.2 mm 3 mps 749 mmHg 57%
14:00 +12°C° 0.2 mm 3 mps 749 mmHg 55%
15:00 +12°C° 0.1 mm 3 mps 749 mmHg 57%
16:00 +12°C° 0.1 mm 2 mps 748 mmHg 58%
17:00 +12°C° 0.1 mm 2 mps 748 mmHg 60%
18:00 +10°C° 0 mm 2 mps 748 mmHg 65%
19:00 +9°C° 0 mm 2 mps 748 mmHg 70%
20:00 +7°C° 0 mm 2 mps 748 mmHg 76%
21:00 +8°C° 0 mm 1 mps 748 mmHg 78%
22:00 +7°C° 0 mm 1 mps 748 mmHg 81%
23:00 +6°C° 0 mm 1 mps 747 mmHg 84%

21 April, Wednesday

Time Temperature Precipitation Wind Pressure Humidity
00:00 +6°C° 0 mm 1 mps 747 mmHg 85%
01:00 +6°C° 0 mm 1 mps 747 mmHg 86%
02:00 +6°C° 0 mm 1 mps 747 mmHg 87%
03:00 +4°C° 0 mm 2 mps 747 mmHg 88%
04:00 +4°C° 0 mm 2 mps 746 mmHg 89%
05:00 +4°C° 0 mm 2 mps 746 mmHg 90%
06:00 +5°C° 0 mm 2 mps 746 mmHg 86%
07:00 +5°C° 0 mm 3 mps 746 mmHg 81%
08:00 +7°C° 0 mm 3 mps 746 mmHg 77%
09:00 +9°C° 0.1 mm 3 mps 746 mmHg 70%
10:00 +10°C° 0.1 mm 4 mps 746 mmHg 64%
11:00 +11°C° 0.1 mm 4 mps 746 mmHg 58%
12:00 +12°C° 0.1 mm 4 mps 746 mmHg 56%
13:00 +12°C° 0.1 mm 4 mps 746 mmHg 54%
14:00 +12°C° 0.1 mm 4 mps 745 mmHg 51%
15:00 +12°C° 0.1 mm 4 mps 745 mmHg 52%
16:00 +12°C° 0.1 mm 4 mps 745 mmHg 53%
17:00 +12°C° 0.1 mm 4 mps 745 mmHg 54%
18:00 +11°C° 0 mm 3 mps 745 mmHg 60%
19:00 +9°C° 0 mm 3 mps 746 mmHg 66%
20:00 +8°C° 0 mm 2 mps 746 mmHg 72%
21:00 +7°C° 0 mm 2 mps 746 mmHg 75%
22:00 +7°C° 0 mm 2 mps 746 mmHg 77%
23:00 +6°C° 0 mm 2 mps 746 mmHg 80%

22 April, Thursday

Time Temperature Precipitation Wind Pressure Humidity
00:00 +6°C° 0 mm 2 mps 746 mmHg 82%
01:00 +5°C° 0 mm 3 mps 746 mmHg 83%
02:00 +4°C° 0 mm 3 mps 746 mmHg 85%
03:00 +5°C° 0 mm 3 mps 746 mmHg 87%
04:00 +5°C° 0 mm 3 mps 746 mmHg 89%
05:00 +5°C° 0 mm 3 mps 746 mmHg 91%
06:00 +5°C° 0.2 mm 3 mps 746 mmHg 91%
07:00 +7°C° 0.2 mm 3 mps 747 mmHg 90%
08:00 +7°C° 0.2 mm 3 mps 747 mmHg 89%
09:00 +7°C° 0 mm 4 mps 747 mmHg 79%
10:00 +7°C° 0 mm 4 mps 748 mmHg 69%
11:00 +8°C° 0 mm 4 mps 748 mmHg 60%
12:00 +10°C° 0 mm 4 mps 748 mmHg 54%
13:00 +10°C° 0 mm 4 mps 748 mmHg 49%
14:00 +10°C° 0 mm 5 mps 749 mmHg 43%
15:00 +10°C° 0 mm 5 mps 749 mmHg 44%
16:00 +11°C° 0 mm 4 mps 749 mmHg 45%
17:00 +11°C° 0 mm 4 mps 749 mmHg 46%
18:00 +8°C° 0 mm 4 mps 749 mmHg 50%
19:00 +8°C° 0 mm 3 mps 749 mmHg 54%
20:00 +7°C° 0 mm 2 mps 749 mmHg 57%
21:00 +6°C° 0 mm 2 mps 749 mmHg 62%
22:00 +5°C° 0 mm 2 mps 749 mmHg 66%
23:00 +4°C° 0 mm 2 mps 750 mmHg 71%

23 April, Friday

Time Temperature Precipitation Wind Pressure Humidity
00:00 +4°C° 0 mm 2 mps 750 mmHg 74%
01:00 +3°C° 0 mm 2 mps 750 mmHg 77%
02:00 +3°C° 0 mm 2 mps 750 mmHg 80%
03:00 +2°C° 0 mm 2 mps 750 mmHg 84%
04:00 +2°C° 0 mm 2 mps 750 mmHg 88%
05:00 +1°C° 0 mm 2 mps 751 mmHg 91%
06:00 +2°C° 0 mm 3 mps 751 mmHg 87%
07:00 +3°C° 0 mm 3 mps 752 mmHg 82%
08:00 +4°C° 0 mm 4 mps 752 mmHg 77%
09:00 +5°C° 0.1 mm 4 mps 752 mmHg 70%
10:00 +6°C° 0.1 mm 5 mps 753 mmHg 64%
11:00 +7°C° 0.1 mm 5 mps 753 mmHg 58%
12:00 +7°C° 0.1 mm 5 mps 753 mmHg 58%
13:00 +7°C° 0.1 mm 5 mps 754 mmHg 59%
14:00 +7°C° 0.1 mm 6 mps 754 mmHg 60%
15:00 +7°C° 0 mm 6 mps 755 mmHg 59%
16:00 +7°C° 0 mm 5 mps 755 mmHg 58%
17:00 +7°C° 0 mm 5 mps 755 mmHg 57%
18:00 +6°C° 0 mm 5 mps 756 mmHg 61%
19:00 +5°C° 0 mm 4 mps 756 mmHg 65%
20:00 +4°C° 0 mm 4 mps 756 mmHg 70%
21:00 +3°C° 0 mm 4 mps 757 mmHg 71%
22:00 +3°C° 0 mm 4 mps 757 mmHg 72%
23:00 +1°C° 0 mm 4 mps 758 mmHg 74%
Show more